[[{"header":{"parameterUnit":"m.s-1","parameterCategory":1,"la1":30.2991,"la2":30.254,"lo1":-89.0895,"lo2":-89.0444,"dy":0.0017,"dx":0.0017,"nx":28,"ny":28,"refTime":"2024-04-01T03:00:00:Z","depth":0,"parameterNumber":2,"parameterNumberName":"U-component_of_WINDS"},"data":[0,0,0,0,0,0,0,0,0,0,0,0,0,0,0,0,0,0,0,0,0,0,0,0,0,0,0,0,0,0,0,0,0,0,0,0,0,0,0,0,0,0,0,0,0,0,0,0,0,0,0,0,0,0,0,0,0,0,-2.9959,-2.9959,0,-2.9965,-2.9965,-2.9965,-2.9934,-2.9933,-2.9933,-2.9932,-2.9939,-2.994,-2.9941,0,0,0,0,0,0,0,0,0,0,0,0,0,-2.9921,-2.9922,-2.9959,-2.9959,-2.9959,-2.9965,-2.9965,-2.9965,-2.9935,-2.9933,-2.9932,-2.9931,-2.9939,-2.994,-2.9941,0,0,0,0,0,0,0,0,0,0,0,0,0,-2.9934,-2.9922,-2.9959,-2.9944,-2.9943,-2.9965,-2.9965,-2.9965,-2.9935,-2.9933,-2.9932,-2.9931,-2.9938,-2.994,-2.9941,-2.9978,0,0,-2.9946,-2.9947,0,0,0,0,0,0,0,0,-2.9933,-2.9935,-2.9946,-2.9945,-2.9944,-2.9948,-2.9955,-2.9969,-2.9935,-2.9938,-2.9932,-2.993,-2.9943,-2.9944,-2.9948,-2.9978,-2.9978,-2.9946,-2.9947,-2.9948,-2.9948,0,0,0,0,0,0,0,-2.9932,-2.9935,-2.9961,-2.9946,-2.9945,-2.9938,-2.9938,-2.9957,-2.9948,-2.9938,-2.9935,-2.9936,-2.9942,-2.9947,-2.9948,-2.9978,-2.9946,-2.9947,-2.9948,-2.9949,-3.0039,-3.0041,0,0,0,0,0,0,-2.9933,-2.9934,-2.9961,-2.9961,-2.9935,-2.994,-2.994,-2.9948,-2.9948,-2.9946,-2.9938,-2.9935,-2.9945,-2.9946,-2.9948,-2.9991,-2.9948,-2.9949,-2.995,-3.0038,-3.004,-3.0041,0,0,0,0,0,0,-2.9932,-2.9936,-2.9961,-2.9947,-2.995,-2.9942,-2.9951,-2.9949,-2.9953,-2.9948,-2.9946,-2.9944,-2.9944,-2.9946,-2.9971,-2.9991,-2.995,-2.9951,-3.0036,-3.0038,-3.004,-3.0077,0,0,0,0,0,0,-2.9931,-2.9936,-2.9949,-2.9948,-2.9951,-2.9983,-2.9952,-2.995,-2.9956,-2.9953,-2.9953,-2.9952,-2.9943,-2.9969,-2.9972,-2.9992,-2.9952,-3.0034,-3.0037,-3.004,-3.0074,-3.008,-3.0085,0,0,0,0,0,-2.993,-2.9959,-2.995,-2.9953,-2.9967,-2.9984,-2.9986,-2.9974,-2.9958,-2.9971,-2.9968,-2.9952,-2.9988,-2.9971,-2.9975,-2.9996,-3.0033,-3.0036,-3.0039,-3.0071,-3.0079,-3.0085,0,0,0,0,0,0,-2.9963,-2.9958,-2.9948,-2.9977,-2.9981,-2.9979,-2.9995,-2.9983,-2.9991,-2.9988,-2.9974,-2.9974,-3.0001,-3.0001,-2.9982,-3.0032,-3.0008,-3.0012,-3.003,-3.0038,-3.0043,-3.0042,-2.9954,0,0,0,0,0,-2.9973,-2.9987,-2.9983,-3.0009,-3.0011,-3.0003,-3.001,-3.0001,-3.0005,-3.0006,-3.0005,-3.0009,-3.0021,-3.003,-3.0041,-3.0074,-3.0074,-3.009,-3.0096,-3.0101,-3.0104,-3.0123,-3.013,-3.0052,-3.0052,-3.0052,0,0,-2.9995,-2.9995,-3.0004,-3.0016,-3.0017,-3.0032,-3.0005,-3.0021,-3.0033,-3.0009,-3.0032,-3.0031,-3.0035,-3.0064,-3.0077,-3.0065,-3.0126,-3.0105,-3.0109,-3.011,-3.0127,-3.0134,-3.0141,-3.0054,-3.0054,-3.0054,0,0,-3.0043,-3.0044,-3.0066,-3.0068,-3.0072,-3.0066,-3.0072,-3.0071,-3.007,-3.0093,-3.0076,-3.0089,-3.011,-3.0114,-3.0119,-3.0169,-3.0155,-3.0173,-3.0203,-3.0221,-3.0227,-3.0232,-3.025,-3.0257,-3.0177,-3.0177,-3.0177,0,-3.007,-3.0091,-3.0079,-3.0097,-3.0103,-3.0082,-3.0105,-3.0108,-3.0115,-3.012,-3.0106,-3.0133,-3.0134,-3.0164,-3.0177,-3.0181,-3.0187,-3.0173,-3.0227,-3.0232,-3.0237,-3.0254,-3.0261,-3.0179,-3.0179,-3.0179,-3.0179,0,-3.0124,-3.0139,-3.0157,-3.0164,-3.0172,-3.0192,-3.0183,-3.0193,-3.0184,-3.018,-3.0204,-3.0205,-3.0216,-3.0223,-3.0214,-3.0252,-3.0245,-3.023,-3.0205,-3.0247,-3.0263,-3.0269,-3.0183,-3.0182,-3.0181,-3.0181,0,0,-3.0191,-3.0192,-3.0198,-3.0201,-3.0204,-3.0216,-3.0236,-3.0247,-3.0255,-3.0262,-3.0278,-3.0297,-3.0283,-3.0289,-3.0281,-3.0296,-3.0336,-3.0279,-3.0279,-3.029,-3.0378,-3.0389,-3.0397,-3.0328,-3.0329,-3.033,-3.0378,0,-3.0237,-3.027,-3.026,-3.0294,-3.0308,-3.029,-3.0307,-3.0311,-3.0309,-3.0321,-3.0318,-3.0332,-3.0313,-3.0316,-3.0331,-3.0328,-3.0354,-3.0325,-3.0343,-3.0344,-3.0341,-3.0405,-3.0417,-3.0462,-3.0384,-3.0385,-3.0386,0,-3.0295,-3.0303,-3.0338,-3.0339,-3.0345,-3.0361,-3.037,-3.0382,-3.0387,-3.0384,-3.039,-3.0379,-3.0399,-3.0376,-3.0403,-3.0384,-3.0391,-3.0391,-3.0393,-3.0393,-3.0367,-3.0407,-3.0476,-3.0483,-3.0395,-3.0395,-3.0394,0,-3.034,-3.036,-3.0384,-3.0387,-3.0389,-3.0401,-3.0402,-3.0405,-3.0413,-3.0421,-3.0426,-3.0437,-3.0443,-3.0452,-3.0445,-3.0428,-3.0474,-3.0449,-3.0472,-3.0472,-3.0482,-3.0481,-3.0552,-3.0487,-3.0487,-3.0487,-3.0487,0,-3.0392,-3.0415,-3.0404,-3.0418,-3.0443,-3.0432,-3.0457,-3.0456,-3.046,-3.0474,-3.0459,-3.0473,-3.0463,-3.0476,-3.047,-3.0494,-3.0497,-3.0496,-3.0494,-3.0497,-3.0497,-3.05,-3.0497,-3.0489,-3.0489,-3.0488,-3.0488,0,-3.0447,-3.044,-3.0465,-3.0465,-3.0465,-3.0484,-3.0484,-3.0498,-3.0494,-3.0513,-3.0517,-3.0512,-3.0527,-3.052,-3.0536,-3.0532,-3.0563,-3.0557,-3.0561,-3.056,-3.0583,-3.058,-3.0658,-3.0668,-3.0597,-3.0598,-3.0598,0,-3.048,-3.0497,-3.0499,-3.0507,-3.051,-3.0523,-3.0531,-3.0521,-3.053,-3.0537,-3.055,-3.0564,-3.0574,-3.0599,-3.0597,-3.0609,-3.0604,-3.063,-3.0605,-3.0608,-3.0604,-3.0603,-3.0604,-3.0635,-3.0636,-3.0636,-3.0637,0,-3.054,-3.0537,-3.0548,-3.0558,-3.0568,-3.0576,-3.0582,-3.059,-3.0581,-3.0592,-3.0607,-3.0615,-3.0631,-3.0645,-3.0656,-3.0658,-3.0646,-3.0645,-3.0651,-3.0653,-3.0655,-3.0654,-3.0574,-3.0643,-3.0642,-3.0642,-3.0641,-3.0641,-3.0585,-3.0599,-3.0603,-3.0616,-3.062,-3.0627,-3.064,-3.0638,-3.0651,-3.0663,-3.0657,-3.0674,-3.0679,-3.0693,-3.0697,-3.0711,-3.07,-3.0709,-3.0711,-3.0713,-3.0716,-3.0653,-3.0713,-3.0713,-3.0712,-3.0712,-3.0712,0,-3.0644,-3.0646,-3.0658,-3.0668,-3.0679,-3.0667,-3.0674,-3.0683,-3.0699,-3.0705,-3.0715,-3.0733,-3.0747,-3.0746,-3.0759,-3.077,-3.0765,-3.0774,-3.0773,-3.0773,-3.0725,-3.0718,-3.0778,-3.0778,-3.0778,-3.0778,-3.0778,-3.0778,-3.0676,-3.0699,-3.0696,-3.0722,-3.0723,-3.074,-3.0745,-3.0752,-3.0756,-3.0776,-3.0788,-3.0787,-3.0791,-3.0804,-3.0816,-3.0815,-3.0821,-3.0832,-3.0829,-3.0783,-3.0777,-3.0771,-3.0764,-3.0833,-3.0833,-3.0877,-3.0877,-3.0877]},{"header":{"parameterUnit":"m.s-1","parameterCategory":1,"la1":30.2991,"la2":30.254,"lo1":-89.0895,"lo2":-89.0444,"dy":0.0017,"dx":0.0017,"nx":28,"ny":28,"refTime":"2024-04-01T03:00:00:Z","depth":0,"parameterNumber":3,"parameterNumberName":"V-component_of_WINDS"},"data":[0,0,0,0,0,0,0,0,0,0,0,0,0,0,0,0,0,0,0,0,0,0,0,0,0,0,0,0,0,0,0,0,0,0,0,0,0,0,0,0,0,0,0,0,0,0,0,0,0,0,0,0,0,0,0,0,0,0,3.5757,3.5757,0,3.577,3.577,3.577,3.5761,3.5761,3.576,3.576,3.5772,3.5772,3.5773,0,0,0,0,0,0,0,0,0,0,0,0,0,3.5722,3.5723,3.5756,3.5757,3.5757,3.577,3.577,3.577,3.5761,3.576,3.576,3.576,3.5771,3.5772,3.5773,0,0,0,0,0,0,0,0,0,0,0,0,0,3.5736,3.5723,3.5756,3.5754,3.5754,3.577,3.577,3.5771,3.5761,3.576,3.576,3.5759,3.5771,3.5772,3.5773,3.5792,0,0,3.5777,3.5777,0,0,0,0,0,0,0,0,3.5736,3.5738,3.5754,3.5754,3.5754,3.5763,3.5763,3.5778,3.5761,3.5758,3.576,3.5759,3.5769,3.577,3.5774,3.5793,3.5794,3.5777,3.5777,3.5778,3.5778,0,0,0,0,0,0,0,3.5735,3.5737,3.5762,3.5754,3.5754,3.5752,3.5753,3.5765,3.5767,3.5758,3.5758,3.576,3.5769,3.5773,3.5775,3.5794,3.5777,3.5778,3.5778,3.5779,3.5831,3.5832,0,0,0,0,0,0,3.5734,3.5736,3.5761,3.5762,3.5743,3.5753,3.5754,3.5761,3.5767,3.5767,3.576,3.5759,3.5772,3.5773,3.5775,3.58,3.5778,3.5779,3.5779,3.5831,3.5832,3.5832,0,0,0,0,0,0,3.5733,3.5736,3.5761,3.5749,3.5752,3.5754,3.5761,3.5761,3.5766,3.5768,3.5768,3.5764,3.5771,3.5773,3.5789,3.58,3.5779,3.578,3.583,3.5831,3.5832,3.5848,0,0,0,0,0,0,3.5732,3.5736,3.5743,3.5749,3.5753,3.5775,3.5762,3.5762,3.5768,3.5767,3.5772,3.5772,3.5771,3.5787,3.579,3.5801,3.5781,3.5829,3.583,3.5832,3.5847,3.585,3.5852,0,0,0,0,0,3.5731,3.5746,3.5744,3.5747,3.5762,3.5775,3.5777,3.5776,3.5769,3.5776,3.5778,3.5772,3.5798,3.5789,3.5792,3.5803,3.5828,3.583,3.5832,3.5845,3.5849,3.5852,0,0,0,0,0,0,3.574,3.5747,3.5744,3.5762,3.5768,3.5774,3.5783,3.5779,3.5787,3.5786,3.5783,3.5785,3.5802,3.5804,3.5793,3.5823,3.5812,3.5814,3.5821,3.5825,3.5828,3.5827,3.5782,0,0,0,0,0,3.5745,3.5755,3.576,3.5775,3.5779,3.5781,3.5786,3.5785,3.5791,3.5794,3.5797,3.5803,3.5812,3.5819,3.5827,3.5847,3.5849,3.5856,3.5859,3.5861,3.5863,3.5876,3.588,3.5838,3.5838,3.5838,0,0,3.5753,3.5758,3.5765,3.5777,3.5782,3.5794,3.5783,3.5794,3.5803,3.5795,3.5811,3.5813,3.582,3.5838,3.5846,3.584,3.5876,3.5863,3.5865,3.5866,3.5878,3.5882,3.5886,3.5839,3.5839,3.5839,0,0,3.5775,3.5779,3.5793,3.5799,3.5807,3.5808,3.5812,3.5818,3.582,3.5836,3.5831,3.5841,3.5857,3.5863,3.5867,3.5894,3.5889,3.5897,3.5912,3.5924,3.5927,3.593,3.5941,3.5945,3.5899,3.5899,3.5899,0,3.5784,3.5801,3.58,3.5814,3.582,3.5815,3.583,3.5835,3.5845,3.585,3.5843,3.5865,3.5869,3.589,3.5896,3.59,3.5905,3.5896,3.5927,3.593,3.5932,3.5943,3.5947,3.59,3.59,3.59,3.59,0,3.5813,3.5825,3.5836,3.5848,3.5855,3.5869,3.5871,3.5878,3.5877,3.5879,3.5896,3.5901,3.5912,3.5916,3.5914,3.5937,3.5934,3.5927,3.5916,3.5937,3.5947,3.5951,3.5901,3.5901,3.5901,3.59,0,0,3.584,3.5853,3.5857,3.5863,3.5873,3.5882,3.5896,3.5908,3.5915,3.5923,3.5935,3.5951,3.5945,3.5951,3.595,3.596,3.5983,3.5953,3.5953,3.5959,3.6011,3.6017,3.6021,3.598,3.5981,3.5981,3.6011,0,3.5863,3.5889,3.589,3.5913,3.5925,3.5922,3.5934,3.5942,3.5945,3.5955,3.5958,3.597,3.5961,3.5965,3.5975,3.5978,3.5994,3.5976,3.5992,3.5993,3.5992,3.6026,3.6032,3.6059,3.6015,3.6015,3.6016,0,3.5893,3.5904,3.5929,3.5939,3.5945,3.5956,3.5968,3.5978,3.5987,3.5989,3.5996,3.5994,3.6009,3.5997,3.6019,3.6007,3.6014,3.6016,3.6018,3.602,3.6006,3.6031,3.6068,3.6073,3.6021,3.6021,3.6021,0,3.5912,3.5933,3.5951,3.5956,3.5968,3.5977,3.5982,3.599,3.5998,3.6008,3.6014,3.6025,3.6032,3.6041,3.6042,3.6033,3.6065,3.6052,3.6067,3.6067,3.6074,3.6074,3.6114,3.6077,3.6076,3.6076,3.6076,0,3.5939,3.5955,3.596,3.5972,3.599,3.5991,3.6009,3.6013,3.6021,3.6034,3.6031,3.6042,3.6043,3.6055,3.6056,3.6075,3.6077,3.6079,3.608,3.608,3.608,3.6085,3.6084,3.6077,3.6077,3.6077,3.6077,0,3.5963,3.5967,3.5987,3.5998,3.6001,3.6014,3.6023,3.6034,3.6037,3.6053,3.6057,3.6062,3.6077,3.6079,3.6095,3.6096,3.6119,3.6117,3.6117,3.6117,3.6132,3.6131,3.6178,3.6185,3.6142,3.6142,3.6142,0,3.598,3.5993,3.6005,3.6014,3.602,3.6034,3.6043,3.6045,3.6054,3.6066,3.6076,3.6091,3.6103,3.6126,3.6131,3.6144,3.6143,3.6158,3.6145,3.6146,3.6145,3.6145,3.6147,3.6161,3.6162,3.6162,3.6162,0,3.6011,3.6013,3.6026,3.604,3.6051,3.6062,3.6073,3.608,3.6083,3.6094,3.611,3.6119,3.6137,3.6152,3.6166,3.6171,3.6168,3.6167,3.6171,3.6173,3.6173,3.6175,3.6125,3.6166,3.6165,3.6165,3.6165,3.6165,3.6033,3.6045,3.6056,3.6072,3.608,3.6091,3.6103,3.6108,3.6122,3.6138,3.6138,3.6155,3.6166,3.6184,3.619,3.6204,3.6199,3.6205,3.6207,3.6208,3.6211,3.617,3.6206,3.6206,3.6206,3.6206,3.6206,0,3.6065,3.6073,3.6087,3.6103,3.6115,3.6112,3.6124,3.6135,3.6151,3.6161,3.6173,3.6192,3.6207,3.6214,3.6229,3.6239,3.6238,3.6243,3.6243,3.6245,3.6214,3.6209,3.6244,3.6244,3.6244,3.6244,3.6244,3.6244,3.6083,3.6104,3.6108,3.6133,3.6141,3.6159,3.6166,3.6177,3.6185,3.6207,3.622,3.6225,3.6234,3.625,3.6264,3.6266,3.6272,3.6278,3.628,3.625,3.6247,3.6243,3.6239,3.6279,3.6279,3.631,3.631,3.631]}]]